"2010-12-19 00:00:00",435181,2.773,120.1,5.575,1.17,1.07,99.52514,-1.91,-1.071,49.87,0,109.5,13.59,-1.16,82.1
"2010-12-19 00:00:30",435182,3.097,121.2,6.827,1.215,2.128,99.5359,-1.883,-0.863,49.93,0,109.4,13.59,-1.14,83.2
"2010-12-19 00:01:00",435183,3.503,121.7,5.993,1.153,3.042,99.53477,-1.885,-0.841,49.9,0,109.4,13.59,-1.14,83.7
"2010-12-19 00:01:30",435184,3.623,116.2,6.226,1.079,2.702,99.52457,-1.911,-0.923,49.85,0,109.4,13.59,-1.17,78.2
"2010-12-19 00:02:00",435185,3.166,113,6.176,1.24,2.042,99.51268,-1.942,-0.836,50.13,0,109.4,13.59,-1.20,75.0
"2010-12-19 00:02:30",435186,3.64,114.2,6.183,1.083,3.04,99.4906,-1.998,-0.869,50.31,0,109.4,13.59,-1.25,76.2
"2010-12-19 00:03:00",435187,2.544,111.3,5.437,1.12,0.352,99.48409,-2.015,-1.121,50.22,0,109.4,13.59,-1.27,73.3
"2010-12-19 00:03:30",435188,2.895,114.7,6.797,1.216,1.895,99.46086,-2.074,-0.924,50.63,0,109.4,13.59,-1.33,76.7
"2010-12-19 00:04:00",435189,3.513,121.2,5.177,1.036,2.98,99.45633,-2.085,-0.969,50.7,0,109.4,13.59,-1.34,83.2
"2010-12-19 00:04:30",435190,3.169,120.9,6.053,1.137,1.892,99.44614,-2.111,-1.077,50.65,0,109.4,13.59,-1.37,82.9
"2010-12-19 00:05:00",435191,3.245,121.7,6.298,1.195,2.14,99.42831,-2.157,-1.009,50.88,0,109.4,13.59,-1.41,83.7
"2010-12-19 00:05:30",435192,2.817,120.2,7.181,1.241,1.553,99.42236,-2.172,-1.041,50.85,0,109.4,13.6,-1.43,82.2
"2010-12-19 00:06:00",435193,1.576,111.9,1.085,0.029,-0.751,99.42319,-2.17,-1.255,50.74,0,109.4,13.63,-1.43,73.9
"2010-12-19 00:06:30",435194,2.681,117.6,6.519,1.188,1.757,99.42319,-2.17,-1.071,51.05,0,109.4,13.6,-1.43,79.6
"2010-12-19 00:07:00",435195,3.049,122.4,5.732,1.137,2.949,99.4195,-2.179,-1.036,51.07,0,109.4,13.6,-1.43,84.4
"2010-12-19 00:07:30",435196,1.419,116.5,2.472,0.625,-0.615,99.41325,-2.195,-1.269,50.96,0,109.4,13.6,-1.45,78.5
"2010-12-19 00:08:00",435197,2.825,127.3,7.394,1.2,1.618,99.41013,-2.203,-1.113,51.14,0,109.4,13.6,-1.46,89.3
"2010-12-19 00:08:30",435198,2.57,128.3,6.378,1.255,1.434,99.40727,-2.21,-1.068,51.24,0,109.4,13.6,-1.47,90.3
"2010-12-19 00:09:00",435199,1.249,124.9,2.397,0.037,-0.984,99.40076,-2.227,-1.273,51.12,0,109.4,13.64,-1.48,86.9
"2010-12-19 00:09:30",435200,1.964,132.7,6.369,1.086,0.695,99.40385,-2.219,-1.175,51.15,0,109.4,13.6,-1.47,94.7
"2010-12-19 00:10:00",435201,3.099,141.6,6.02,1.103,2.642,99.40498,-2.216,-1.159,51.13,0,109.4,13.6,-1.47,103.6
"2010-12-19 00:10:30",435202,2.175,135.5,6.273,1.111,1.002,99.40667,-2.212,-1.129,51.12,0,109.4,13.6,-1.47,97.5
"2010-12-19 00:11:00",435203,2.987,138,5.816,1.226,2.452,99.4078,-2.209,-1.097,51.18,0,109.4,13.6,-1.46,100.0
"2010-12-19 00:11:30",435204,3.217,135.4,4.908,1.146,2.588,99.41202,-2.198,-1.124,51.16,0,109.4,13.6,-1.45,97.4
"2010-12-19 00:12:00",435205,2.262,125.1,6.507,1.219,1.019,99.4123,-2.198,-1.237,51.13,0,109.4,13.6,-1.45,87.1
"2010-12-19 00:12:30",435206,1.707,118.7,4.619,0.987,0.113,99.41343,-2.195,-1.32,51.12,0,109.4,13.6,-1.45,80.7
"2010-12-19 00:13:00",435207,2.638,116.5,6.249,1.186,2.515,99.41483,-2.191,-1.113,51.4,0,109.4,13.61,-1.45,78.5
"2010-12-19 00:13:30",435208,2.509,103.4,8.64,1.232,2.4,99.40945,-2.205,-1.176,51.43,0,109.4,13.61,-1.46,65.4
"2010-12-19 00:14:00",435209,1.672,87.7,4.985,1.133,0.238,99.39671,-2.237,-1.317,51.42,0,109.4,13.61,-1.49,49.7
"2010-12-19 00:14:30",435210,2.622,83,6.147,1.203,1.867,99.38764,-2.26,-1.14,51.72,0,109.4,13.61,-1.52,45.0
"2010-12-19 00:15:00",435211,2.35,75.27,7.021,1.233,1.26,99.38226,-2.274,-1.223,51.68,0,109.4,13.61,-1.53,37.3
"2010-12-19 00:15:30",435212,1.712,69.18,6.044,1.046,-0.353,99.38309,-2.272,-1.401,51.57,0,109.4,13.61,-1.53,31.2
"2010-12-19 00:16:00",435213,2.171,72.48,6.727,1.245,0.892,99.38394,-2.27,-1.288,51.63,0,109.4,13.6,-1.53,34.5
"2010-12-19 00:16:30",435214,2.788,80,6.519,1.15,2.048,99.38254,-2.273,-1.159,51.8,0,109.4,13.6,-1.53,42.0
"2010-12-19 00:17:00",435215,1.573,76.47,3.527,0.855,-0.612,99.3876,-2.26,-1.404,51.54,0,109.4,13.61,-1.52,38.5
"2010-12-19 00:17:30",435216,2.601,83.5,6.476,1.186,1.859,99.38619,-2.264,-1.134,51.78,0,109.4,13.6,-1.52,45.5
"2010-12-19 00:18:00",435217,2.881,89.3,5.628,1.062,2.935,99.38704,-2.262,-1.171,51.75,0,109.4,13.6,-1.52,51.3
"2010-12-19 00:18:30",435218,1.564,84.4,5.674,1.082,0.883,99.38817,-2.259,-1.376,51.5,0,109.4,13.6,-1.51,46.4
"2010-12-19 00:19:00",435219,0.99,80.8,0.48,0.451,-0.353,99.38817,-2.259,-1.332,51.56,0,109.4,13.6,-1.51,42.8
"2010-12-19 00:19:30",435220,2.608,90.7,5.047,1.146,2.759,99.38817,-2.259,-1.192,51.69,0,109.4,13.61,-1.51,52.7
"2010-12-19 00:20:00",435221,2.514,87.1,5.926,1.196,2.116,99.38817,-2.259,-1.235,51.63,0,109.4,13.61,-1.51,49.1
"2010-12-19 00:20:30",435222,1.24,81.6,6.07,0.769,-0.704,99.38817,-2.259,-1.326,51.61,0,109.4,13.61,-1.51,43.6
"2010-12-19 00:21:00",435223,2.806,98.7,5.057,1.167,2.411,99.38817,-2.259,-1.196,51.69,0,109.4,13.62,-1.51,60.7
"2010-12-19 00:21:30",435224,2.501,95.4,6.462,1.253,2.197,99.38817,-2.259,-1.171,51.72,0,109.4,13.62,-1.51,57.4
"2010-12-19 00:22:00",435225,1.314,92.4,3.404,0.361,-0.194,99.38222,-2.274,-1.338,51.6,0,109.4,13.65,-1.53,54.4
"2010-12-19 00:22:30",435226,2.303,101.8,6.24,1.189,1.662,99.36976,-2.306,-1.33,51.53,0,109.4,13.62,-1.56,63.8
"2010-12-19 00:23:00",435227,2.577,104.3,7.989,1.252,1.834,99.36693,-2.313,-1.219,51.71,0,109.4,13.62,-1.57,66.3
"2010-12-19 00:23:30",435228,1.907,97.7,7.028,1.093,-0.119,99.35899,-2.333,-1.391,51.56,0,109.4,13.62,-1.59,59.7
"2010-12-19 00:24:00",435229,2.56,103.8,6.91,1.215,1.289,99.35446,-2.345,-1.28,51.71,0,109.4,13.62,-1.60,65.8
"2010-12-19 00:24:30",435230,2.853,107,6.08,1.194,2.59,99.35417,-2.346,-1.227,51.82,0,109.4,13.62,-1.60,69.0
"2010-12-19 00:25:00",435231,2.683,107.6,6.059,1.243,2.302,99.35389,-2.346,-1.256,51.85,0,109.4,13.62,-1.60,69.6
"2010-12-19 00:25:30",435232,2.194,105.9,4.609,1.063,0.289,99.34596,-2.367,-1.446,51.7,0,109.4,13.62,-1.62,67.9
"2010-12-19 00:26:00",435233,3.086,113,5.753,1.174,1.7,99.33577,-2.393,-1.285,51.84,0,109.4,13.62,-1.65,75.0
"2010-12-19 00:26:30",435234,2.751,107,6.763,1.222,0.611,99.33407,-2.397,-1.366,51.78,0,109.4,13.62,-1.65,69.0
"2010-12-19 00:27:00",435235,2.531,102.9,6.012,1.214,1.192,99.33067,-2.406,-1.333,51.83,0,109.4,13.62,-1.66,64.9
"2010-12-19 00:27:30",435236,3.379,102.9,6.046,1.149,2.968,99.3284,-2.411,-1.264,51.89,0,109.4,13.62,-1.67,64.9
"2010-12-19 00:28:00",435237,3.047,97.3,6.669,1.192,1.898,99.32274,-2.426,-1.344,51.88,0,109.4,13.62,-1.68,59.3
"2010-12-19 00:28:30",435238,2.113,89.5,4.172,1.029,0.88,99.32019,-2.432,-1.376,51.9,0,109.4,13.62,-1.69,51.5
"2010-12-19 00:29:00",435239,2.238,87.2,6.224,1.214,0.582,99.32076,-2.431,-1.512,51.85,0,109.4,13.63,-1.69,49.2
"2010-12-19 00:29:30",435240,1.989,89.5,4.482,1.08,0.15,99.32046,-2.432,-1.482,51.96,0,109.4,13.62,-1.69,51.5
"2010-12-19 00:30:00",435241,2.835,97.2,6.248,1.207,2.171,99.30969,-2.459,-1.439,52.06,0,109.4,13.63,-1.72,59.2
"2010-12-19 00:30:30",435242,2.781,105,6.734,1.143,2.68,99.30345,-2.475,-1.333,52.14,0,109.4,13.63,-1.73,67.0
"2010-12-19 00:31:00",435243,2.707,112.6,6.33,1.15,2.213,99.29919,-2.486,-1.38,52.06,0,109.4,13.63,-1.74,74.6
"2010-12-19 00:31:30",435244,2.2,118.3,6.043,1.18,1.257,99.30199,-2.479,-1.453,51.97,0,109.4,13.63,-1.74,80.3
"2010-12-19 00:32:00",435245,1.852,118.6,6.178,1.115,0.337,99.30454,-2.472,-1.46,51.94,0,109.4,13.62,-1.73,80.6
"2010-12-19 00:32:30",435246,1.723,118.6,4.987,1.057,-0.594,99.30509,-2.471,-1.587,51.84,0,109.4,13.62,-1.73,80.6
"2010-12-19 00:33:00",435247,2.018,122.3,6.4,1.184,0.758,99.31044,-2.457,-1.458,51.96,0,109.4,13.63,-1.71,84.3
"2010-12-19 00:33:30",435248,2.929,129.1,5.745,1.115,2.139,99.31071,-2.456,-1.438,51.98,0,109.4,13.62,-1.71,91.1
"2010-12-19 00:34:00",435249,2.27,124.9,6.236,1.267,1.766,99.3144,-2.447,-1.352,52.08,0,109.4,13.62,-1.70,86.9
"2010-12-19 00:34:30",435250,2.105,123.5,6.51,1.258,1.331,99.32034,-2.432,-1.435,51.92,0,109.4,13.62,-1.69,85.5
"2010-12-19 00:35:00",435251,2.037,122.2,5.815,1.187,0.887,99.32485,-2.42,-1.441,51.91,0,109.4,13.62,-1.68,84.2
"2010-12-19 00:35:30",435252,0.799,119.4,0.912,0.005,-1.463,99.3243,-2.422,-1.508,51.83,0,109.4,13.66,-1.68,81.4
"2010-12-19 00:36:00",435253,1.784,120.5,3.585,1.22,0.387,99.32374,-2.423,-1.46,51.74,0,109.4,13.63,-1.68,82.5
"2010-12-19 00:36:30",435254,1.525,110.4,4.527,1.005,-0.327,99.31268,-2.451,-1.454,51.88,0,109.4,13.63,-1.71,72.4
"2010-12-19 00:37:00",435255,2.788,109.1,6.35,1.151,2.58,99.30617,-2.468,-1.368,52.16,0,109.4,13.63,-1.72,71.1
"2010-12-19 00:37:30",435256,3.003,106.2,5.779,1.152,2.998,99.2869,-2.517,-1.396,52.23,0,109.4,13.63,-1.77,68.2
"2010-12-19 00:38:00",435257,1.815,101.3,5.483,0.983,0.161,99.27189,-2.555,-1.429,52.3,0,109.4,13.63,-1.81,63.3
"2010-12-19 00:38:30",435258,2.191,111.5,4.527,1.179,0.092,99.2747,-2.548,-1.653,52.18,0,109.4,13.63,-1.81,73.5
"2010-12-19 00:39:00",435259,1.297,111,0.479,0.015,-1.374,99.27611,-2.545,-1.627,52.15,0,109.4,13.67,-1.80,73.0
"2010-12-19 00:39:30",435260,2.313,119,5.525,1.227,0.653,99.27836,-2.539,-1.565,52.16,0,109.4,13.64,-1.80,81.0
"2010-12-19 00:40:00",435261,2.87,129.7,5.718,1.189,2.189,99.28033,-2.534,-1.406,52.13,0,109.4,13.64,-1.79,91.7
"2010-12-19 00:40:30",435262,2.796,140.5,6.012,1.174,2.922,99.30271,-2.477,-1.403,51.94,0,109.4,13.64,-1.73,102.5
"2010-12-19 00:41:00",435263,2.695,141.8,6.321,1.184,2.421,99.3231,-2.425,-1.488,51.87,0,109.4,13.64,-1.68,103.8
"2010-12-19 00:41:30",435264,1.418,133.4,4.146,0.736,0.142,99.34947,-2.358,-1.451,51.75,0,109.4,13.64,-1.61,95.4
"2010-12-19 00:42:00",435265,1.929,134.7,6.085,1.174,0.481,99.38429,-2.269,-1.5,51.49,0,109.4,13.64,-1.52,96.7
"2010-12-19 00:42:30",435266,1.929,134.1,6.451,1.174,1.155,99.41178,-2.199,-1.398,51.32,0,109.4,13.64,-1.45,96.1
"2010-12-19 00:43:00",435267,2.287,137.7,7.845,1.313,1.882,99.4322,-2.147,-1.205,51.26,0,109.4,13.64,-1.40,99.7
"2010-12-19 00:43:30",435268,2.758,152.9,6.213,1.145,2.558,99.45061,-2.1,-1.2,51.06,0,109.4,13.64,-1.36,114.9
"2010-12-19 00:44:00",435269,2.182,145.2,7.236,1.233,2.035,99.46648,-2.059,-1.136,50.9,0,109.4,13.64,-1.31,107.2
"2010-12-19 00:44:30",435270,1.701,132,4.928,0.938,0.692,99.46816,-2.055,-1.128,50.58,0,109.4,13.64,-1.31,94.0
"2010-12-19 00:45:00",435271,2.209,133.8,6.176,1.19,0.238,99.4472,-2.109,-1.281,50.33,0,109.4,13.64,-1.36,95.8
"2010-12-19 00:45:30",435272,1.598,127.3,4.603,0.915,-0.233,99.41716,-2.185,-1.167,50.66,0,109.4,13.64,-1.44,89.3
"2010-12-19 00:46:00",435273,2.489,132.8,6.487,1.222,0.869,99.39194,-2.249,-1.298,50.72,0,109.4,13.64,-1.51,94.8
"2010-12-19 00:46:30",435274,2.674,137.7,6.179,1.202,1.716,99.37041,-2.304,-1.183,51,0,109.4,13.64,-1.56,99.7
"2010-12-19 00:47:00",435275,3.049,140.4,6.473,1.038,2.587,99.35227,-2.35,-1.256,51.11,0,109.4,13.64,-1.61,102.4
"2010-12-19 00:47:30",435276,1.959,148.9,9.76,1.191,1.006,99.35339,-2.348,-1.392,51.03,0,109.4,13.64,-1.60,110.9
"2010-12-19 00:48:00",435277,1.18,139.9,6.057,1.07,0.413,99.36246,-2.324,-1.31,51.25,0,109.4,13.64,-1.58,101.9
"2010-12-19 00:48:30",435278,1.497,129.1,7.372,1.032,-0.265,99.38768,-2.26,-1.446,50.98,0,109.4,13.64,-1.52,91.1
"2010-12-19 00:49:00",435279,1.281,132.5,9.92,0.95,-0.06,99.39193,-2.249,-1.297,50.93,0,109.4,13.64,-1.51,94.5
"2010-12-19 00:49:30",435280,2.529,138.3,8.62,1.158,2.042,99.41403,-2.193,-1.248,51,0,109.4,13.64,-1.45,100.3
"2010-12-19 00:50:00",435281,1.846,125.2,5.425,1.154,1.141,99.42197,-2.173,-1.158,50.76,0,109.4,13.64,-1.43,87.2
"2010-12-19 00:50:30",435282,2.525,128.8,5.611,1.188,1.96,99.41941,-2.179,-1.291,50.54,0,109.4,13.64,-1.44,90.8
"2010-12-19 00:51:00",435283,2.265,125.8,8.53,1.202,1.679,99.42055,-2.176,-1.156,50.73,0,109.4,13.64,-1.43,87.8
"2010-12-19 00:51:30",435284,2.21,123.7,3.825,1.237,1.256,99.40807,-2.208,-1.299,50.47,0,109.4,13.64,-1.46,85.7
"2010-12-19 00:52:00",435285,0.864,120.9,2.291,0.084,-1.192,99.40325,-2.221,-1.348,50.59,0,109.4,13.67,-1.48,82.9
"2010-12-19 00:52:30",435286,1.611,145.7,18.87,1.186,1.239,99.40325,-2.221,-1.213,50.81,0,109.4,13.64,-1.48,107.7
"2010-12-19 00:53:00",435287,2.302,151.2,13.33,1.211,2.347,99.42197,-2.173,-1.201,50.99,0,109.4,13.65,-1.43,113.2
"2010-12-19 00:53:30",435288,1.112,131.4,12.71,1.079,0.555,99.44463,-2.115,-1.204,50.9,0,109.4,13.65,-1.37,93.4
"2010-12-19 00:54:00",435289,1.536,144.6,12.47,1.297,1.6,99.45596,-2.086,-1.152,50.72,0,109.4,13.65,-1.34,106.6
"2010-12-19 00:54:30",435290,0.157,132.9,17.02,0.598,-0.614,99.45596,-2.086,-1.244,50.53,0,109.4,13.65,-1.34,94.9
"2010-12-19 00:55:00",435291,1.252,97,6.148,1.011,0.271,99.4537,-2.092,-1.111,50.2,0,109.4,13.65,-1.35,59.0
"2010-12-19 00:55:30",435292,1.252,89.3,5.282,0.973,-0.732,99.41374,-2.194,-1.273,49.84,0,109.4,13.65,-1.45,51.3
"2010-12-19 00:56:00",435293,0.852,86.5,0.405,0.031,-1.344,99.37492,-2.293,-1.331,50.22,0,109.4,13.69,-1.55,48.5
"2010-12-19 00:56:30",435294,2.388,93.6,6.217,1.258,1.527,99.34942,-2.358,-1.127,50.63,0,109.4,13.66,-1.61,55.6
"2010-12-19 00:57:00",435295,2.694,97.6,5.778,1.209,2.397,99.32109,-2.43,-1.195,50.6,0,109.4,13.66,-1.69,59.6
"2010-12-19 00:57:30",435296,1.912,96.5,6.58,1.199,1.49,99.31032,-2.457,-1.269,50.83,0,109.4,13.66,-1.71,58.5
"2010-12-19 00:58:00",435297,2.707,102.6,4.818,1.131,2.824,99.2885,-2.513,-1.349,50.72,0,109.4,13.66,-1.77,64.6
"2010-12-19 00:58:30",435298,0.748,98.3,5.01,0.654,-0.652,99.2936,-2.5,-1.441,50.81,0,109.4,13.66,-1.76,60.3
"2010-12-19 00:59:00",435299,0.932,101.6,7.295,0.996,-0.138,99.31486,-2.446,-1.493,50.9,0,109.4,13.66,-1.70,63.6
"2010-12-19 00:59:30",435300,0.399,107.6,5.941,0.065,-1.568,99.31995,-2.433,-1.527,50.78,0,109.4,13.69,-1.69,69.6
"2010-12-19 01:00:00",435301,1.126,103.4,6.064,1.166,0.367,99.31995,-2.433,-1.414,50.94,0,109.4,13.66,-1.69,65.4
"2010-12-19 01:00:30",435302,1.654,103.4,10.5,1.27,2.084,99.32817,-2.412,-1.288,51.04,0,109.4,13.66,-1.67,65.4
"2010-12-19 01:01:00",435303,1.902,99,5.805,1.125,3.281,99.34007,-2.382,-1.395,50.79,0,109.4,13.66,-1.64,61.0
"2010-12-19 01:01:30",435304,0.932,93.4,6.073,1.097,1.444,99.32506,-2.42,-1.321,50.6,0,109.4,13.66,-1.68,55.4
"2010-12-19 01:02:00",435305,1.204,91.7,6.016,1.197,1.554,99.31995,-2.433,-1.369,50.54,0,109.4,13.66,-1.69,53.7
"2010-12-19 01:02:30",435306,0.717,87.3,6.202,1.036,-0.643,99.31882,-2.436,-1.555,50.47,0,109.4,13.66,-1.69,49.3
"2010-12-19 01:03:00",435307,0.175,88.2,1.488,0.019,-1.51,99.31089,-2.456,-1.563,50.64,0,109.4,13.7,-1.71,50.2
"2010-12-19 01:03:30",435308,0.248,92.4,2.392,0.05,-1.183,99.31515,-2.445,-1.565,50.79,0,109.4,13.7,-1.70,54.4
"2010-12-19 01:04:00",435309,0.427,90.4,2.695,0.059,-0.771,99.32053,-2.431,-1.532,50.95,0,109.4,13.7,-1.69,52.4
"2010-12-19 01:04:30",435310,2.329,108.3,7.67,1.164,2.884,99.32108,-2.43,-1.291,51.21,0,109.4,13.66,-1.69,70.3
"2010-12-19 01:05:00",435311,2.334,104.3,9.85,1.143,3.423,99.33297,-2.4,-1.33,51.24,0,109.4,13.66,-1.66,66.3
"2010-12-19 01:05:30",435312,2.498,102.8,6.914,0.996,3.136,99.34854,-2.36,-1.317,51,0,109.4,13.66,-1.62,64.8
"2010-12-19 01:06:00",435313,0.805,100.6,5.321,0.663,-0.234,99.34513,-2.369,-1.347,50.84,0,109.3,13.66,-1.62,62.6
"2010-12-19 01:06:30",435314,0.747,98.5,4.336,0.642,-1.289,99.3318,-2.403,-1.509,50.35,0,109.4,13.66,-1.66,60.5
"2010-12-19 01:07:00",435315,0.427,101.1,2.222,0.051,-1.662,99.32952,-2.408,-1.539,50.61,0,109.4,13.69,-1.66,63.1
"2010-12-19 01:07:30",435316,0.542,111.2,5.867,0.126,-1.48,99.33687,-2.39,-1.538,50.86,0,109.4,13.69,-1.65,73.2
"2010-12-19 01:08:00",435317,1.851,126.3,8.87,1.264,1.273,99.36547,-2.317,-1.304,51.25,0,109.4,13.66,-1.57,88.3
"2010-12-19 01:08:30",435318,3.132,134.5,3.926,0.688,4.257,99.38811,-2.259,-1.188,51.54,0,109.4,13.66,-1.52,96.5
"2010-12-19 01:09:00",435319,2.948,131,8.38,0.77,3.903,99.41644,-2.187,-1.199,51.4,0,109.4,13.66,-1.44,93.0
"2010-12-19 01:09:30",435320,1.478,117.2,5.76,1.077,0.555,99.44025,-2.126,-1.255,51.15,0,109.3,13.66,-1.38,79.2
"2010-12-19 01:10:00",435321,0.741,120.7,5.11,0.069,-1.27,99.453,-2.094,-1.317,50.87,0,109.4,13.7,-1.35,82.7
"2010-12-19 01:10:30",435322,0.645,141.5,11.41,0.06,-1.423,99.48106,-2.022,-1.31,50.86,0,109.4,13.7,-1.28,103.5
"2010-12-19 01:11:00",435323,0.688,153.7,3.82,0.075,-0.909,99.48955,-2.001,-1.262,50.81,0,109.3,13.7,-1.26,115.7
"2010-12-19 01:11:30",435324,2.653,163.4,6.893,1.083,2.905,99.50967,-1.949,-1.033,50.84,0,109.4,13.67,-1.20,125.4
"2010-12-19 01:12:00",435325,2.746,156.6,7.255,1.031,3.432,99.51535,-1.935,-0.929,50.87,0,109.4,13.67,-1.19,118.6
"2010-12-19 01:12:30",435326,1.766,148.2,5.554,1.212,1.412,99.51591,-1.933,-1.101,50.61,0,109.3,13.67,-1.19,110.2
"2010-12-19 01:13:00",435327,2.058,143.4,9.63,1.234,2.098,99.52129,-1.92,-0.943,50.89,0,109.4,13.67,-1.17,105.4
"2010-12-19 01:13:30",435328,1.869,133.8,6.358,1.19,0.768,99.54311,-1.864,-1.066,50.72,0,109.3,13.67,-1.12,95.8
"2010-12-19 01:14:00",435329,0.75,129.9,1.341,0.048,-1.341,99.55189,-1.842,-1.106,50.54,0,109.3,13.7,-1.10,91.9
"2010-12-19 01:14:30",435330,1.683,123.5,5.427,1.182,-0.017,99.55189,-1.842,-1.076,50.34,0,109.3,13.67,-1.10,85.5
"2010-12-19 01:15:00",435331,2.462,130.8,6.484,1.223,2.558,99.55019,-1.846,-0.788,50.63,0,109.3,13.67,-1.10,92.8
"2010-12-19 01:15:30",435332,2.7,129.6,5.949,1.17,3.09,99.55785,-1.827,-0.834,50.68,0,109.3,13.67,-1.08,91.6
"2010-12-19 01:16:00",435333,2.647,133,5.906,1.119,3.03,99.56862,-1.799,-0.84,50.62,0,109.3,13.67,-1.05,95.0
"2010-12-19 01:16:30",435334,1.968,133.5,5.809,1.185,1.439,99.58504,-1.757,-0.909,50.47,0,109.3,13.67,-1.01,95.5
"2010-12-19 01:17:00",435335,0.679,128.6,4.715,0.092,-1.155,99.58731,-1.751,-0.927,50.25,0,109.3,13.71,-1.01,90.6
"2010-12-19 01:17:30",435336,0.533,125.6,5.861,0.068,-1.317,99.58929,-1.746,-0.975,49.9,0,109.3,13.71,-1.00,87.6
"2010-12-19 01:18:00",435337,1.101,134.7,8.03,1.096,0.6,99.589,-1.747,-0.839,50.02,0,109.3,13.67,-1.00,96.7
"2010-12-19 01:18:30",435338,1.645,143.7,6.379,1.24,1.555,99.58873,-1.748,-0.786,50.03,0,109.3,13.67,-1.00,105.7
"2010-12-19 01:19:00",435339,1.249,152.1,7.688,1.181,1.067,99.58985,-1.745,-0.895,50.01,0,109.4,13.67,-1.00,114.1
"2010-12-19 01:19:30",435340,0.414,133.9,5.874,0.438,-0.651,99.59042,-1.744,-0.841,49.81,0,109.3,13.67,-1.00,95.9
"2010-12-19 01:20:00",435341,2.034,146.4,5.051,1.136,2.654,99.58985,-1.745,-0.734,49.73,0,109.3,13.67,-1.00,108.4
"2010-12-19 01:20:30",435342,0.576,148.6,3.609,0.831,-0.655,99.58134,-1.767,-0.851,49.64,0,109.3,13.67,-1.02,110.6
"2010-12-19 01:21:00",435343,0.518,153.8,3.543,0.217,-0.818,99.58305,-1.762,-0.918,49.8,0,109.3,13.7,-1.02,115.8
"2010-12-19 01:21:30",435344,0.989,152.1,6.365,0.868,-0.706,99.59127,-1.741,-0.94,49.89,0,109.3,13.67,-1.00,114.1
"2010-12-19 01:22:00",435345,1.083,143.2,4.735,0.877,0.047,99.5941,-1.734,-0.749,50,0,109.3,13.67,-0.99,105.2
"2010-12-19 01:22:30",435346,2.281,138.4,7.215,1.163,2.506,99.60799,-1.699,-0.724,49.89,0,109.3,13.67,-0.95,100.4
"2010-12-19 01:23:00",435347,1.685,137.5,7.106,1.216,2.036,99.6233,-1.66,-0.674,49.83,0,109.3,13.67,-0.91,99.5
"2010-12-19 01:23:30",435348,2.481,141.8,4.844,0.876,2.71,99.62527,-1.655,-0.726,49.67,0,109.3,13.67,-0.91,103.8
"2010-12-19 01:24:00",435349,2.112,142.3,5.236,1.079,2.692,99.62556,-1.654,-0.684,49.65,0,109.3,13.67,-0.91,104.3
"2010-12-19 01:24:30",435350,0.459,130,2.868,0.641,-1.514,99.60912,-1.696,-0.88,49.28,0,109.3,13.67,-0.95,92.0
"2010-12-19 01:25:00",435351,0.232,131.5,0.917,0.034,-1.889,99.59212,-1.739,-0.885,49.21,0,109.3,13.7,-0.99,93.5
"2010-12-19 01:25:30",435352,0.254,130.8,2.375,0.003,-1.389,99.59183,-1.74,-0.8,49.35,0,109.3,13.7,-0.99,92.8
"2010-12-19 01:26:00",435353,1.348,123.8,9.96,1.205,0.298,99.58928,-1.746,-0.813,49.31,0,109.3,13.68,-1.00,85.8
"2010-12-19 01:26:30",435354,1.285,120.1,6.254,1.238,1.045,99.56831,-1.8,-0.661,49.44,0,109.3,13.68,-1.05,82.1
"2010-12-19 01:27:00",435355,0.772,113.1,6.112,0.967,-0.196,99.55555,-1.832,-0.868,49.17,0,109.3,13.68,-1.09,75.1
"2010-12-19 01:27:30",435356,1.044,109.9,7.767,1.121,0.443,99.52296,-1.916,-0.792,49.03,0,109.3,13.68,-1.17,71.9
"2010-12-19 01:28:00",435357,1.949,123.3,7.497,1.183,1.434,99.48979,-2,-0.779,49.07,0,109.3,13.68,-1.26,85.3
"2010-12-19 01:28:30",435358,1.832,133.2,3.885,1.116,-0.576,99.45266,-2.095,-1.057,48.78,0,109.3,13.68,-1.35,95.2
"2010-12-19 01:29:00",435359,1.017,129.2,1.71,0.091,-2.429,99.41468,-2.191,-1.164,48.99,0,109.3,13.71,-1.45,91.2
"2010-12-19 01:29:30",435360,2.152,132.5,6.063,1.224,0.16,99.37216,-2.3,-1.138,49.4,0,109.3,13.68,-1.56,94.5
"2010-12-19 01:30:00",435361,2.891,136.2,6.412,1.235,1.613,99.32964,-2.408,-1.143,49.75,0,109.3,13.68,-1.66,98.2
"2010-12-19 01:30:30",435362,3.19,137.7,5.659,1.124,1.8,99.2894,-2.511,-1.208,50.08,0,109.3,13.68,-1.77,99.7
"2010-12-19 01:31:00",435363,3.278,136.1,5.986,1.095,2.25,99.25425,-2.6,-1.281,50.39,0,109.3,13.68,-1.86,98.1
"2010-12-19 01:31:30",435364,3.416,134,5.332,1.095,2.189,99.22221,-2.682,-1.417,50.65,0,109.3,13.68,-1.94,96.0
"2010-12-19 01:32:00",435365,2.931,130,7.077,1.23,0.592,99.20947,-2.714,-1.59,50.69,0,109.3,13.68,-1.97,92.0
"2010-12-19 01:32:30",435366,1.99,127.8,4.373,0.946,-0.532,99.18367,-2.78,-1.59,51.08,0,109.3,13.68,-2.04,89.8
"2010-12-19 01:33:00",435367,3.109,132.9,5.836,1.211,1.592,99.18338,-2.781,-1.616,51.2,0,109.3,13.68,-2.04,94.9
"2010-12-19 01:33:30",435368,2.734,135.8,6.859,1.236,1.573,99.16723,-2.822,-1.581,51.54,0,109.3,13.68,-2.08,97.8
"2010-12-19 01:34:00",435369,3.002,142,6.186,1.166,2.335,99.16468,-2.828,-1.62,51.84,0,109.3,13.68,-2.09,104.0
"2010-12-19 01:34:30",435370,2.702,144.8,5.841,1.233,1.779,99.17602,-2.8,-1.701,52.03,0,109.3,13.68,-2.06,106.8
"2010-12-19 01:35:00",435371,0.975,143.8,3.763,0.09,-1.023,99.19131,-2.761,-1.794,51.91,0,109.3,13.71,-2.02,105.8
"2010-12-19 01:35:30",435372,2.025,158.9,5.769,1.283,1.186,99.23384,-2.652,-1.772,52.09,0,109.3,13.68,-1.91,120.9
"2010-12-19 01:36:00",435373,2.504,172.7,10.14,1.092,2.668,99.28458,-2.523,-1.642,52.24,0,109.3,13.68,-1.78,134.7
"2010-12-19 01:36:30",435374,0.937,186.8,8.98,1.054,1.643,99.33815,-2.386,-1.583,52.31,0,109.3,13.68,-1.64,148.8
"2010-12-19 01:37:00",435375,0.568,194.3,4.54,0.634,-0.011,99.39257,-2.248,-1.593,51.97,0,109.3,13.68,-1.50,156.3
"2010-12-19 01:37:30",435376,2.091,194.6,7.728,1.177,2.522,99.43083,-2.15,-1.355,51.79,0,109.3,13.68,-1.41,156.6
"2010-12-19 01:38:00",435377,2.265,176,10.75,1.195,2.254,99.45464,-2.09,-1.224,51.2,0,109.3,13.68,-1.34,138.0
"2010-12-19 01:38:30",435378,0.909,155.4,2.321,0.063,-1.464,99.42772,-2.158,-1.384,50.36,0,109.3,13.71,-1.41,117.4
"2010-12-19 01:39:00",435379,1.88,144.2,6.467,1.225,-0.25,99.38634,-2.264,-1.286,50.3,0,109.3,13.68,-1.52,106.2
"2010-12-19 01:39:30",435380,2.631,133.4,6.485,1.104,1.163,99.33928,-2.384,-1.308,50.39,0,109.3,13.68,-1.64,95.4
"2010-12-19 01:40:00",435381,1.243,116.1,4.166,0.854,-0.583,99.29932,-2.485,-1.405,50.52,0,109.3,13.68,-1.74,78.1
"2010-12-19 01:40:30",435382,1.238,112.2,4.023,0.779,-1.105,99.267,-2.568,-1.618,50.62,0,109.3,13.68,-1.82,74.2
"2010-12-19 01:41:00",435383,2.905,119.5,5.367,1.099,2.05,99.23894,-2.639,-1.49,50.93,0,109.3,13.68,-1.90,81.5
"2010-12-19 01:41:30",435384,2.712,117,6.315,1.17,1.274,99.21768,-2.693,-1.501,51.13,0,109.3,13.68,-1.95,79.0
"2010-12-19 01:42:00",435385,2.259,117.1,5.634,1.155,-0.232,99.19983,-2.739,-1.733,51.07,0,109.3,13.68,-2.00,79.1
"2010-12-19 01:42:30",435386,2.38,121,6.058,1.147,0.097,99.18367,-2.78,-1.613,51.42,0,109.3,13.68,-2.04,83.0
"2010-12-19 01:43:00",435387,3.116,126.2,5.891,1.168,1.586,99.18367,-2.78,-1.586,51.59,0,109.3,13.68,-2.04,88.2
"2010-12-19 01:43:30",435388,2.699,127.5,5.937,1.232,1.09,99.18027,-2.789,-1.781,51.58,0,109.3,13.68,-2.05,89.5
"2010-12-19 01:44:00",435389,2.849,123,6.895,1.138,2.052,99.16581,-2.826,-1.672,51.77,0,109.3,13.68,-2.08,85.0
"2010-12-19 01:44:30",435390,2.871,113.6,6.246,1.144,0.999,99.1386,-2.895,-1.717,51.54,0,109.3,13.68,-2.15,75.6
"2010-12-19 01:45:00",435391,1.461,112.6,4.069,1.069,-0.708,99.1097,-2.969,-1.924,51.57,0,109.3,13.68,-2.23,74.6
"2010-12-19 01:45:30",435392,1.58,127.2,9.12,1.276,-0.258,99.08475,-3.032,-1.925,51.83,0,109.3,13.68,-2.29,89.2
"2010-12-19 01:46:00",435393,1.193,143.9,4.711,1.186,-0.592,99.08163,-3.04,-2.012,52.47,0,109.3,13.69,-2.30,105.9
"2010-12-19 01:46:30",435394,1.584,166.8,17.32,1.211,0.205,99.09297,-3.011,-1.972,52.66,0,109.3,13.69,-2.27,128.8